Cooktown Observation History
Time Wind Speed Temp Pressure Rel. Hum Rain
03/01:30pm ENE 10-15 kts 28.8°c 1009.6 hPa 67% 0.0mm
03/01:00pm ESE 10-14 kts 29.1°c 1010.0 hPa 64% 0.0mm
03/12:30pm ESE 11-14 kts 28.5°c 1010.4 hPa 70% 0.0mm
03/12:00pm E 11-15 kts 29.1°c 1010.9 hPa 69% 0.0mm
03/11:30am E 11-16 kts 29.1°c 1011.4 hPa 66% 0.0mm
03/11:00am E 9-13 kts 29.2°c 1011.7 hPa 66% 0.0mm
03/10:30am SE 8-12 kts 28.9°c 1011.8 hPa 70% 0.0mm
03/10:00am ESE 8-12 kts 28.6°c 1012.2 hPa 67% 0.0mm
03/09:30am ESE 7-11 kts 28.5°c 1012.2 hPa 70% 0.0mm
03/09:00am SW 2-7 kts 27.5°c 1012.1 hPa 78% 0.0mm
03/08:30am CALM 0 kts 25.9°c 1012.0 hPa 79% 0.0mm
03/08:00am CALM 0-3 kts 25.2°c 1011.9 hPa 82% 0.0mm
03/07:30am CALM 0 kts 24.5°c 1011.5 hPa 87% 0.0mm
03/07:00am CALM 0-2 kts 23.8°c 1011.1 hPa 89% 0.0mm
03/06:30am CALM 0-3 kts 23.6°c 1010.7 hPa 88% 0.0mm
03/06:00am SSE 5-8 kts 24.0°c 1010.3 hPa 85% 0.0mm
03/05:30am SE 6-9 kts 23.8°c 1010.1 hPa 88% 0.0mm
03/05:00am SSE 4-6 kts 23.9°c 1009.9 hPa 90% 0.0mm
03/04:30am SSW 3-6 kts 24.0°c 1009.6 hPa 89% 0.0mm
03/04:00am S 3-5 kts 24.2°c 1009.5 hPa 88% 0.0mm
03/03:30am SSE 5-6 kts 24.1°c 1009.6 hPa 88% 0.0mm
03/03:00am SSE 5-7 kts 24.4°c 1009.9 hPa 89% 0.0mm
03/02:30am S 3-5 kts 24.2°c 1009.8 hPa 90% 0.0mm
03/02:00am S 4-6 kts 24.5°c 1009.7 hPa 89% 0.0mm
03/01:30am SSE 5-7 kts 24.7°c 1009.9 hPa 88% 0.0mm
03/01:00am SSE 4-5 kts 24.8°c 1010.3 hPa 87% 0.0mm
03/12:30am SSE 5-8 kts 25.3°c 1010.7 hPa 85% 0.0mm
03/12:00am SSE 6-9 kts 25.4°c 1011.0 hPa 84% 0.0mm
Time Wind Speed Temp Pressure Rel. Hum Rain
02/11:30pm SSE 5-8 kts 25.7°c 1011.3 hPa 81% 0.0mm
02/11:00pm ESE 6-10 kts 26.2°c 1011.3 hPa 78% 0.0mm
02/10:30pm SE 7-11 kts 26.1°c 1011.5 hPa 78% 0.0mm
02/10:00pm SE 5-8 kts 25.7°c 1011.8 hPa 83% 0.0mm
02/09:30pm SE 4-5 kts 25.6°c 1011.9 hPa 85% 0.0mm
02/09:00pm SE 4-6 kts 25.5°c 1011.7 hPa 83% 0.0mm
02/08:30pm SE 7-10 kts 26.0°c 1011.3 hPa 82% 0.0mm
02/08:00pm SE 5-7 kts 26.0°c 1011.0 hPa 83% 0.0mm
02/07:30pm SE 6-9 kts 25.7°c 1010.5 hPa 81% 0.0mm
02/07:00pm SE 7-13 kts 25.9°c 1010.3 hPa 80% 0.0mm
02/06:30pm ESE 9-12 kts 26.2°c 1010.1 hPa 80% 0.0mm
02/06:00pm SE 9-14 kts 26.6°c 1010.0 hPa 77% 0.0mm
02/05:30pm SE 10-13 kts 27.3°c 1009.8 hPa 75% 0.0mm
02/05:00pm ESE 12-19 kts 27.7°c 1009.6 hPa 73% 0.0mm
02/04:30pm SE 11-16 kts 28.2°c 1009.6 hPa 75% 0.0mm
02/04:00pm SE 12-20 kts 28.5°c 1009.2 hPa 73% 0.0mm
02/03:30pm ESE 13-19 kts 28.5°c 1009.4 hPa 70% 0.0mm
02/03:00pm ESE 13-19 kts 28.7°c 1009.5 hPa 66% 0.0mm
02/02:30pm ESE 12-16 kts 29.1°c 1009.6 hPa 68% 0.0mm
02/02:00pm ESE 11-15 kts 29.2°c 1010.0 hPa 68% 0.0mm
02/01:30pm ESE 11-19 kts 29.3°c 1010.6 hPa 70% 0.0mm
02/01:00pm ESE 12-17 kts 29.2°c 1011.2 hPa 66% 0.0mm
02/12:30pm ESE 12-17 kts 29.3°c 1011.7 hPa 63% 0.0mm
02/12:00pm ESE 10-17 kts 29.1°c 1012.2 hPa 68% 0.0mm
02/11:30am ESE 13-19 kts 29.4°c 1012.6 hPa 67% 0.0mm
02/11:00am ESE 14-22 kts 29.2°c 1012.7 hPa 66% 0.0mm
02/10:30am ESE 12-16 kts 28.8°c 1012.8 hPa 75% 0.0mm
02/10:00am SE 10-15 kts 28.8°c 1012.7 hPa 68% 0.0mm
02/09:30am ESE 12-17 kts 28.2°c 1012.5 hPa 73% 0.0mm
02/09:00am SE 9-13 kts 28.1°c 1012.4 hPa 74% 1.0mm
02/08:30am SSE 9-14 kts 27.4°c 1011.9 hPa 75% 1.0mm
02/08:00am SE 5-8 kts 26.7°c 1011.8 hPa 79% 1.0mm
02/07:30am S 3-4 kts 25.0°c 1011.5 hPa 86% 1.0mm
02/07:00am SSE 3-5 kts 24.6°c 1011.1 hPa 86% 1.0mm
02/06:30am SE 5-7 kts 25.0°c 1010.9 hPa 84% 1.0mm
02/06:00am SE 4-6 kts 24.7°c 1010.5 hPa 86% 1.0mm
02/05:30am SSE 5-9 kts 24.9°c 1010.1 hPa 84% 1.0mm
02/05:00am SE 7-10 kts 25.2°c 1009.8 hPa 84% 1.0mm
02/04:30am SE 6-8 kts 25.1°c 1009.7 hPa 84% 1.0mm
02/04:00am SSE 5-9 kts 25.0°c 1009.7 hPa 84% 1.0mm
02/03:30am SE 5-7 kts 24.9°c 1009.9 hPa 83% 1.0mm
02/03:00am SE 5-9 kts 25.2°c 1010.3 hPa 82% 1.0mm
02/02:30am SE 5-8 kts 25.3°c 1010.4 hPa 83% 1.0mm
02/02:00am SSE 6-8 kts 25.1°c 1010.4 hPa 84% 1.0mm
02/01:30am SE 7-11 kts 25.2°c 1010.7 hPa 84% 1.0mm
02/01:00am SE 6-10 kts 25.4°c 1011.1 hPa 83% 1.0mm
02/12:30am SSE 6-10 kts 25.5°c 1011.2 hPa 83% 1.0mm
02/12:00am SE 8-11 kts 26.1°c 1011.4 hPa 81% 1.0mm
Time Wind Speed Temp Pressure Rel. Hum Rain
01/11:30pm SE 9-14 kts 26.3°c 1011.6 hPa 77% 1.0mm
01/11:00pm ESE 9-13 kts 26.4°c 1011.9 hPa 78% 1.0mm
01/10:30pm SE 7-11 kts 26.2°c 1012.3 hPa 79% 1.0mm
01/10:00pm ESE 9-13 kts 26.2°c 1012.3 hPa 76% 1.0mm
01/09:30pm SE 9-13 kts 26.6°c 1012.2 hPa 78% 1.0mm
01/09:00pm SE 8-12 kts 26.4°c 1012.1 hPa 79% 1.0mm
01/08:30pm ESE 7-11 kts 26.4°c 1012.1 hPa 80% 1.0mm
01/08:00pm SE 7-10 kts 26.2°c 1011.9 hPa 79% 1.0mm
01/07:30pm SE 7-9 kts 26.2°c 1011.5 hPa 80% 1.0mm
01/07:00pm SE 6-9 kts 26.5°c 1011.3 hPa 79% 1.0mm
01/06:30pm SE 6-9 kts 26.5°c 1011.1 hPa 78% 1.0mm
01/06:00pm SE 7-11 kts 26.9°c 1010.9 hPa 76% 1.0mm
01/05:30pm ESE 10-16 kts 27.6°c 1010.7 hPa 73% 1.0mm
01/05:00pm SE 11-17 kts 27.9°c 1010.4 hPa 70% 1.0mm
01/04:30pm SE 9-14 kts 28.2°c 1010.3 hPa 74% 1.0mm
01/04:00pm ESE 11-16 kts 27.9°c 1010.1 hPa 73% 1.0mm
01/03:30pm ESE 11-16 kts 28.7°c 1010.2 hPa 70% 0.8mm
01/03:00pm ESE 10-14 kts 29.0°c 1010.2 hPa 72% 0.8mm
01/02:30pm SE 7-11 kts 28.6°c 1010.4 hPa 81% 0.8mm
01/02:16pm SSE 7-9 kts 26.2°c 1010.6 hPa 84% 0.8mm
01/02:00pm ESE 13-18 kts 25.5°c 1010.8 hPa 80% 0.8mm
01/01:58pm ESE 13-18 kts 25.7°c 1010.8 hPa 79% 0.8mm
01/01:30pm ESE 11-19 kts 28.6°c 1010.7 hPa 67% 0.0mm
01/01:00pm ESE 10-15 kts 28.9°c 1011.2 hPa 75% 0.0mm
01/12:30pm ESE 11-16 kts 28.3°c 1011.5 hPa 76% 0.0mm
01/12:00pm ESE 13-17 kts 27.9°c 1011.8 hPa 71% 0.0mm
01/11:30am E 14-20 kts 29.4°c 1012.1 hPa 69% 0.0mm
01/11:00am E 14-20 kts 29.4°c 1012.6 hPa 67% 0.0mm
01/10:30am ESE 15-22 kts 29.0°c 1012.8 hPa 64% 0.0mm
01/10:00am ESE 13-21 kts 28.9°c 1012.8 hPa 66% 0.0mm
01/09:30am SE 11-20 kts 28.9°c 1012.5 hPa 71% 0.0mm
01/09:00am SE 10-15 kts 28.5°c 1012.2 hPa 71% 0.2mm
01/08:30am SE 11-17 kts 28.1°c 1011.9 hPa 69% 0.2mm
01/08:00am ESE 11-16 kts 27.6°c 1011.5 hPa 72% 0.2mm
01/07:30am SE 7-12 kts 26.9°c 1011.2 hPa 77% 0.2mm
01/07:00am SSE 6-9 kts 25.6°c 1011.0 hPa 81% 0.2mm
01/06:30am SE 9-12 kts 25.9°c 1010.9 hPa 78% 0.2mm
01/06:00am ESE 7-11 kts 25.7°c 1010.4 hPa 80% 0.2mm
01/05:30am SSE 5-9 kts 24.7°c 1010.1 hPa 84% 0.2mm
01/05:00am SE 7-12 kts 25.0°c 1009.9 hPa 85% 0.2mm
01/04:30am SE 6-9 kts 24.9°c 1009.6 hPa 86% 0.2mm
01/04:00am SE 7-10 kts 24.9°c 1009.5 hPa 86% 0.2mm
01/03:30am SE 5-9 kts 24.3°c 1009.8 hPa 87% 0.2mm
01/03:00am SE 6-8 kts 24.6°c 1010.0 hPa 85% 0.2mm
01/02:30am SE 9-15 kts 24.9°c 1010.4 hPa 83% 0.2mm
01/02:00am SE 9-12 kts 24.9°c 1010.6 hPa 84% 0.2mm
01/01:30am SE 8-11 kts 24.9°c 1010.9 hPa 82% 0.2mm
01/01:00am SE 8-12 kts 25.8°c 1011.0 hPa 84% 0.2mm
01/12:30am SE 8-15 kts 25.7°c 1011.2 hPa 85% 0.2mm
01/12:00am SE 8-12 kts 25.8°c 1011.6 hPa 84% 0.2mm